Total_Precipitation_Accumulation
2.39 2.53 2.32 2.07 2.04 1.99 2.30 2.74 3.06 2.79 2.43 2.18 2.01 2.00 2.10 2.21 2.42 2.22 2.27 2.29 2.06 1.82 1.61 1.52 1.47 1.44 1.41 1.44 1.52 1.56 1.59 1.72 1.94 2.17 2.38 2.65 2.94 3.26
2.53 2.59 2.42 2.18 2.27 2.11 2.16 2.48 2.78 3.00 2.68 2.00 2.00 1.95 2.06 1.99 2.33 2.16 2.31 2.31 1.99 1.78 1.57 1.47 1.40 1.35 1.33 1.33 1.36 1.41 1.44 1.43 1.49 1.64 1.79 1.93 2.05 2.21
2.53 2.49 2.45 2.46 2.44 2.29 2.38 2.51 2.59 2.89 2.87 2.24 2.08 2.20 2.33 2.31 2.36 2.24 2.12 2.12 1.96 1.89 1.62 1.45 1.34 1.27 1.26 1.24 1.25 1.23 1.25 1.28 1.30 1.34 1.44 1.52 1.57 1.61
2.82 2.95 2.70 2.68 2.67 2.49 2.52 2.53 2.58 2.80 2.83 2.61 2.38 2.36 2.44 2.40 2.42 2.25 1.90 1.82 1.90 2.05 1.83 1.58 1.43 1.32 1.24 1.19 1.19 1.17 1.17 1.21 1.23 1.23 1.25 1.31 1.38 1.42
2.66 2.91 2.89 3.02 2.78 2.77 2.70 2.58 2.56 2.55 2.74 2.60 2.39 2.54 2.55 2.53 2.47 2.12 1.95 2.03 1.86 2.10 2.01 1.68 1.49 1.38 1.26 1.15 1.10 1.08 1.08 1.11 1.17 1.21 1.21 1.18 1.19 1.23
2.40 2.52 2.63 2.91 2.88 2.91 2.75 2.76 2.85 2.86 2.94 2.83 2.67 2.74 2.84 2.87 2.74 2.38 2.23 2.13 2.02 1.86 1.97 1.74 1.61 1.52 1.38 1.22 1.12 1.06 1.06 1.07 1.09 1.13 1.18 1.20 1.19 1.17
2.36 2.33 2.30 2.53 2.61 2.68 2.43 2.58 2.84 2.88 2.91 2.86 2.79 2.82 2.83 2.99 2.71 2.53 2.37 2.34 2.23 1.96 1.88 1.65 1.58 1.46 1.42 1.39 1.29 1.18 1.11 1.09 1.12 1.13 1.13 1.13 1.16 1.22
2.58 2.52 2.39 2.33 2.33 2.37 2.39 2.47 2.60 2.60 2.63 2.70 2.65 2.67 2.74 2.88 3.05 2.92 2.71 2.50 2.24 1.95 1.98 1.74 1.61 1.52 1.39 1.27 1.38 1.34 1.22 1.15 1.11 1.12 1.15 1.16 1.17 1.19
2.54 2.52 2.25 2.12 2.33 2.24 2.41 2.44 2.25 2.17 2.16 2.28 2.29 2.33 2.78 3.08 3.41 3.09 2.91 2.72 2.41 2.23 2.17 1.81 1.65 1.55 1.40 1.35 1.49 1.33 1.21 1.13 1.08 1.10 1.16 1.17 1.18 1.20
2.17 2.30 2.26 2.16 2.19 2.29 2.23 2.00 1.80 1.80 1.85 1.74 1.75 2.01 2.46 3.02 3.34 3.31 3.30 3.04 2.68 2.28 2.09 1.81 1.60 1.50 1.38 1.41 1.59 1.49 1.33 1.19 1.11 1.08 1.05 1.08 1.13 1.17
1.94 1.94 1.98 1.86 2.01 2.09 1.99 1.78 1.64 1.59 1.64 1.65 1.60 1.79 2.06 2.41 2.84 3.06 2.95 2.77 2.37 1.96 1.83 1.72 1.57 1.61 1.52 1.41 1.43 1.57 1.46 1.32 1.24 1.16 1.12 1.12 1.13 1.18
2.04 2.01 2.08 1.85 1.78 1.72 1.64 1.66 1.49 1.40 1.52 1.51 1.46 1.48 1.58 1.88 2.34 2.44 2.45 2.53 2.27 1.95 1.69 1.72 1.62 1.81 1.75 1.47 1.35 1.37 1.39 1.45 1.42 1.32 1.24 1.24 1.26 1.13
1.81 1.70 1.74 1.77 1.56 1.40 1.38 1.36 1.31 1.36 1.44 1.43 1.35 1.32 1.45 1.61 1.78 2.03 2.23 2.26 2.14 1.80 1.62 1.83 1.73 1.79 1.83 1.57 1.39 1.32 1.32 1.32 1.34 1.39 1.42 1.42 1.40 1.27
1.78 1.78 1.82 1.84 1.58 1.42 1.28 1.16 1.21 1.21 1.22 1.31 1.28 1.22 1.26 1.37 1.61 1.88 2.16 2.26 2.19 2.04 2.02 2.05 1.94 1.89 1.89 1.73 1.51 1.35 1.34 1.36 1.39 1.42 1.45 1.63 1.58 1.53
1.75 2.05 2.05 1.98 1.76 1.48 1.37 1.37 1.30 1.18 1.21 1.25 1.20 1.15 1.21 1.37 1.66 1.97 2.21 2.40 2.36 2.19 2.12 2.07 2.04 2.09 2.14 1.91 1.68 1.56 1.52 1.46 1.41 1.43 1.47 1.50 1.51 1.56
1.69 1.96 2.11 2.11 1.98 1.78 1.68 1.59 1.38 1.31 1.39 1.39 1.40 1.43 1.54 1.68 1.82 1.95 2.16 2.34 2.42 2.25 2.15 2.12 2.15 2.27 2.22 2.06 1.94 1.78 1.66 1.60 1.57 1.61 1.66 1.66 1.63 1.56
1.87 2.06 2.20 2.29 2.28 2.22 2.13 2.04 1.92 1.77 1.62 1.58 1.64 1.63 1.68 1.77 1.82 1.96 2.19 2.31 2.26 2.05 2.03 2.10 2.21 2.30 2.32 2.26 2.05 1.75 1.66 1.58 1.57 1.69 1.75 1.69 1.58 1.53
1.85 1.95 2.19 2.37 2.44 2.53 2.57 2.45 2.23 2.05 1.88 1.85 1.80 1.78 1.80 1.81 1.84 1.99 2.21 2.32 2.21 2.04 1.98 2.01 2.21 2.39 2.40 2.23 1.93 1.70 1.59 1.50 1.45 1.55 1.61 1.57 1.43 1.31
1.71 1.83 1.95 2.06 2.25 2.47 2.55 2.52 2.30 2.17 2.19 2.16 2.07 2.03 2.05 2.06 2.04 2.14 2.32 2.43 2.40 2.27 2.20 2.20 2.25 2.30 2.18 1.83 1.55 1.44 1.45 1.40 1.45 1.46 1.43 1.41 1.35 1.30
1.46 1.65 1.83 1.96 2.11 2.35 2.49 2.53 2.47 2.40 2.41 2.46 2.41 2.35 2.32 2.26 2.16 2.11 2.24 2.37 2.42 2.40 2.35 2.27 2.17 2.15 2.12 1.94 1.77 1.55 1.45 1.52 1.54 1.53 1.47 1.45 1.44 1.51
1.36 1.40 1.48 1.68 1.90 2.14 2.37 2.53 2.54 2.45 2.40 2.44 2.41 2.35 2.33 2.33 2.21 2.11 2.17 2.36 2.43 2.39 2.23 2.03 1.95 2.16 2.35 2.48 2.24 1.78 1.58 1.59 1.66 1.68 1.69 1.76 1.65 1.58
1.44 1.44 1.54 1.71 1.89 2.11 2.30 2.41 2.47 2.48 2.44 2.41 2.34 2.27 2.26 2.25 2.11 2.06 2.09 2.18 2.22 2.23 2.19 2.19 2.36 2.52 2.54 2.51 2.18 1.86 1.73 1.75 1.83 1.90 1.85 1.75 1.65 1.53
1.56 1.55 1.59 1.68 1.85 2.05 2.20 2.32 2.36 2.40 2.42 2.42 2.38 2.29 2.25 2.26 2.21 2.16 2.15 2.17 2.18 2.18 2.32 2.41 2.44 2.54 2.49 2.43 2.35 2.19 2.04 1.97 1.97 1.92 1.73 1.61 1.51 1.42